Lawrence, MA

1:49 PM EDT on April 27, 2017 (GMT -0400)
Lawrence Municipal

Weather History for KLWM - July, 2013

Change the Weather History Date:

Thursday, July 25, 2013

  Actual Average Record
Temperature  
Mean Temperature 62 °F -  
Max Temperature 64 °F 82 °F 97 °F (1963)
Min Temperature 59 °F 62 °F 50 °F (2002)
Degree Days  
Heating Degree Days 4    
Growing Degree Days 12 (Base 50)    
Moisture  
Dew Point 53 °F    
Average Humidity 75    
Maximum Humidity 90    
Minimum Humidity 56    
Precipitation  
Precipitation 0.25 in - - ()
Sea Level Pressure  
Sea Level Pressure 30.10 in    
Wind  
Wind Speed 7 mph (NNE)    
Max Wind Speed 13 mph    
Max Gust Speed -    
Visibility 9 miles    
Events Rain    
Averages and records for this station are not official NWS values.
T = Trace of Precipitation, MM = Missing Value Source: NWS Daily Summary

Daily Weather History Graph

Daily Weather History Graph

Search for Another Location

Airport or City:

Trip Planner

Search our weather history database for the weather conditions in past years. The results will help you decide how hot, cold, wet, or windy it might be!

Date:

Astronomy

Jul. 25, 2013 Rise Set
Actual Time 5:29 AM EDT 8:12 PM EDT
Civil Twilight 4:56 AM EDT 8:44 PM EDT
Nautical Twilight 4:15 AM EDT 9:25 PM EDT
Astronomical Twilight 3:27 AM EDT 10:12 PM EDT
Moon 9:44 PM EDT (7/25) 9:01 AM EDT (7/25)
Length of Visible Light 15h 48m
Length of Day
14h 42m
Waning Gibbous, 88% of the Moon is Illuminated
Jul 25
Waning Gibbous
Jul 29
Last Quarter
Aug 6
New
Aug 14
First Quarter
Aug 20
Full

Hourly Weather History & Observations

Time (EDT) Temp. Dew Point Humidity Pressure Visibility Wind Dir Wind Speed Gust Speed Precip Events Conditions
12:54 AM 63.0 °F 46.9 °F 56% 30.00 in 10.0 mi NNW 9.2 mph - N/A   Mostly Cloudy
1:54 AM 61.0 °F 46.9 °F 60% 30.01 in 10.0 mi NNW 8.1 mph - N/A   Overcast
2:54 AM 61.0 °F 46.9 °F 60% 30.00 in 10.0 mi North 4.6 mph - N/A   Overcast
3:54 AM 60.1 °F 46.9 °F 62% 30.02 in 10.0 mi NNW 3.5 mph - N/A   Mostly Cloudy
4:54 AM 60.1 °F 48.0 °F 64% 30.04 in 10.0 mi NNW 3.5 mph - N/A   Overcast
5:54 AM 60.1 °F 48.9 °F 67% 30.04 in 10.0 mi NNE 8.1 mph - N/A   Overcast
6:54 AM 60.1 °F 50.0 °F 69% 30.07 in 10.0 mi NNE 6.9 mph - N/A   Overcast
7:54 AM 61.0 °F 48.0 °F 62% 30.08 in 10.0 mi NNE 12.7 mph - N/A   Overcast
8:54 AM 61.0 °F 50.0 °F 67% 30.10 in 10.0 mi NNE 9.2 mph - N/A   Overcast
9:54 AM 61.0 °F 50.0 °F 67% 30.12 in 10.0 mi NE 10.4 mph - N/A   Overcast
10:54 AM 63.0 °F 52.0 °F 67% 30.12 in 10.0 mi NE 10.4 mph - N/A   Overcast
11:54 AM 62.1 °F 52.0 °F 70% 30.14 in 10.0 mi NE 9.2 mph - N/A   Overcast
12:54 PM 62.1 °F 52.0 °F 70% 30.13 in 10.0 mi NE 8.1 mph - N/A   Overcast
1:54 PM 62.1 °F 53.1 °F 72% 30.12 in 10.0 mi NE 8.1 mph - N/A   Overcast
2:54 PM 63.0 °F 53.1 °F 70% 30.12 in 9.0 mi NE 6.9 mph - N/A   Overcast
3:54 PM 64.9 °F 54.0 °F 68% 30.11 in 10.0 mi NNE 8.1 mph - 0.00 in   Overcast
4:54 PM 64.0 °F 54.0 °F 70% 30.12 in 10.0 mi ENE 5.8 mph - N/A   Overcast
5:54 PM 62.1 °F 55.9 °F 80% 30.12 in 9.0 mi ENE 6.9 mph - 0.05 in Rain Light Rain
6:54 PM 59.0 °F 54.0 °F 83% 30.13 in 2.5 mi NNE 4.6 mph - 0.12 in Rain Heavy Rain
7:09 PM 59.0 °F 55.4 °F 88% 30.13 in 4.0 mi North 3.5 mph - 0.04 in Rain Rain
7:54 PM 60.1 °F 55.9 °F 86% 30.13 in 7.0 mi Calm Calm - 0.07 in Rain Light Rain
8:11 PM 60.8 °F 55.4 °F 82% 30.13 in 9.0 mi Calm Calm - 0.00 in Rain Light Rain
8:54 PM 60.1 °F 55.9 °F 86% 30.12 in 10.0 mi North 3.5 mph - 0.01 in Rain Light Rain
9:02 PM 60.8 °F 57.2 °F 88% 30.12 in 10.0 mi NE 4.6 mph - 0.00 in Rain Light Rain
9:54 PM 60.1 °F 57.0 °F 90% 30.11 in 10.0 mi NW 5.8 mph - 0.00 in   Overcast
10:23 PM 60.8 °F 57.2 °F 88% 30.11 in 10.0 mi Calm Calm - N/A   Overcast
10:52 PM 60.8 °F 57.2 °F 88% 30.11 in 10.0 mi NW 3.5 mph - N/A   Overcast
10:54 PM 60.1 °F 57.0 °F 90% 30.11 in 10.0 mi Calm Calm - N/A   Overcast
11:16 PM 60.8 °F 57.2 °F 88% 30.11 in 10.0 mi NNW 5.8 mph - N/A   Overcast
11:54 PM 61.0 °F 57.0 °F 87% 30.09 in 10.0 mi North 5.8 mph - N/A   Overcast